Flag for U.S.A. Weather past 2 weeks in Clearwater, Florida, U.S.A.

Now
73 °F

Light rain. Mostly cloudy.


Feels Like: 71 °F
Forecast: 72 / 81 °F
Wind: 9 mph from East

Location: St. Petersburg / Clearwater International Airport

Current Time: Sep 19, 2014 at 9:55:17 PM

Latest Report: Sep 19, 2014 at 8:53 PM


Visibility: 10 mi

Pressure: 29.96 "Hg

Humidity: 90%

Dew point: 70 °F

Location of ClearwaterLocation

Historic Weather in Clearwater — Graph

°F

Clearwater temperature yesterday

Maximum temperature yesterday: 89 °F (at 2:53 PM)
Minimum temperature yesterday: 73 °F (at 3:53 AM)
Average temperature yesterday: 80 °F

Past Weeks' High & Low Weather Summary

 TemperatureHumidityPressure
High92 °F (Sep 10, 4:53 PM)97% (Sep 17, 10:53 AM)30.17 "Hg (Sep 17, 10:53 AM)
Low72 °F (Sep 19, 7:53 PM)47% (Sep 13, 4:53 PM)29.87 "Hg (Sep 18, 4:53 PM)
Average81 °F79%30.01 "Hg
* Reported Sep 4 7:53 PM — Sep 19 7:53 PM, Clearwater, Weather by CustomWeather, © 2014

Note: Actual official high and low records may vary slightly from our data, if they occured in-between our weather recording intervals... More about our weather records

Advertising

Clearwater weather history for previous 24 hours

 ConditionsComfort  
Time TempWeatherWind HumidityBarometerVisibility
7:53 PM
Sep 19
72 °FLight rain. Fog.9 mph87%29.96 "Hg3 mi
7:04 PM73 °FRain. Fog.13 mph88%29.96 "Hg3 mi
5:53 PM75 °FRain. Mostly cloudy.10 mph85%29.94 "Hg3 mi
4:53 PM77 °FLight rain. Mostly cloudy.16 mph82%29.91 "Hg10 mi
4:00 PM79 °FLight rain. Mostly cloudy.12 mph94%29.91 "Hg10 mi
2:53 PM79 °FLight rain. Partly sunny.12 mph90%29.93 "Hg7 mi
1:53 PM79 °FLight rain. Partly sunny.8 mph88%29.95 "Hg7 mi
12:53 PM80 °FLight rain. Partly sunny.5 mph85%29.98 "Hg10 mi
11:53 AM81 °FPassing clouds.9 mph82%29.96 "Hg10 mi
10:53 AM80 °FOvercast.7 mph81%29.96 "Hg10 mi
9:53 AM80 °FSunny.9 mph81%29.96 "Hg10 mi
8:53 AM79 °FSunny.8 mph84%29.94 "Hg10 mi
7:53 AM78 °FClear.5 mph87%29.93 "Hg10 mi
6:53 AM78 °FPassing clouds.6 mph87%29.91 "Hg10 mi
5:53 AM79 °FClear.7 mph84%29.90 "Hg10 mi
4:53 AM79 °FClear.5 mph82%29.89 "Hg10 mi
3:53 AM79 °FClear.6 mph82%29.90 "Hg10 mi
2:53 AM79 °FClear.5 mph82%29.92 "Hg10 mi
1:53 AM80 °FClear.5 mph79%29.92 "Hg10 mi
12:53 AM80 °FClear.6 mph76%29.93 "Hg10 mi
11:53 PM
Sep 18
82 °FPassing clouds.8 mph72%29.94 "Hg10 mi
10:53 PM82 °FPassing clouds.8 mph77%29.93 "Hg10 mi
9:53 PM82 °FPassing clouds.6 mph74%29.93 "Hg10 mi
Weather by CustomWeather, © 2014

See weather overviewHow to use our weather pages